Tracking 22438 objects as of 24-Feb-2021
HD Live streaming from Space Station
objects crossing your sky now

DELTA 1 DEB

Track DELTA 1 DEB now!
10-day predictions


NORAD ID: 21276
Int'l Code: 1975-052M
Perigee: 1,098.8 km
Apogee: 1,169.0 km
Inclination: 100.2 °
Period: 107.8 minutes
Semi major axis: 7504 km
RCS: 1.9671 m2 (large)
Launch date: June 12, 1975
Source: United States (US)
Launch site: AIR FORCE WESTERN TEST RANGE (AFWTR)

Note: This is SATELLITE DEBRIS
aabbcc
Your satellite tracking list
Your tracking list is empty




NASA's NSSDC Master Catalog

Two Line Element Set (TLE):
1 21276U 75052M   21055.45811546 -.00000021  00000-0  47294-4 0  9998
2 21276 100.1662 315.0531 0046797  56.8921 116.5299 13.35321088452950
Source of the keplerian elements: AFSPC